Weather History for Baker, MT

Change the Weather History Date:

Friday, September 21, 2012

  Actual Average Record
Temperature  
Mean Temperature 55 °F -  
Max Temperature 70 °F 66 °F 81 °F (2001)
Min Temperature 41 °F 44 °F 30 °F (1999)
Degree Days  
Heating Degree Days 10    
Growing Degree Days 5 (Base 50)    
Moisture  
Dew Point 29 °F    
Average Humidity 43    
Maximum Humidity 65    
Minimum Humidity 22    
Precipitation  
Precipitation 0.00 in - - ()
Sea Level Pressure  
Sea Level Pressure 30.09 in    
Wind  
Wind Speed 6 mph (NW)    
Max Wind Speed 24 mph    
Max Gust Speed 31 mph    
Visibility 10 miles    
Events      
Averages and records for this station are not official NWS values.
T = Trace of Precipitation, MM = Missing Value Source: NWS Daily Summary

Daily Weather History Graph

Daily Weather History Graph

Search for Another Location

Airport:

Trip Planner

Search our weather history database for the weather conditions in past years. The results will help you decide how hot, cold, wet, or windy it might be!

Date:

Astronomy

Sep. 21, 2012 Rise Set
Actual Time 6:43 AM MDT 6:55 PM MDT
Civil Twilight 6:13 AM MDT 7:25 PM MDT
Nautical Twilight 5:37 AM MDT 8:00 PM MDT
Astronomical Twilight 5:01 AM MDT 8:37 PM MDT
Moon 1:28 PM MDT 10:37 PM MDT
Length of Visible Light 13h 12m
Length of Day
12h 12m
Waxing Crescent, 38% of the Moon is Illuminated
Sep 21
Waxing Crescent
Sep 22
First Quarter
Sep 29
Full
Oct 8
Last Quarter
Oct 15
New

Hourly Weather History & Observations

Time (MDT) Temp. Windchill Dew Point Humidity Pressure Visibility Wind Dir Wind Speed Gust Speed Precip Events Conditions
12:51 AM 48.0 °F - 30.0 °F 50% 30.02 in 10.0 mi WNW 3.5 mph - N/A   Clear
1:51 AM 44.1 °F - 28.9 °F 55% 30.03 in 10.0 mi Calm Calm - N/A   Clear
2:51 AM 43.0 °F 40.3 °F 28.0 °F 56% 30.03 in 10.0 mi West 4.6 mph - N/A   Clear
3:51 AM 43.0 °F 40.3 °F 28.9 °F 58% 30.03 in 10.0 mi WNW 4.6 mph - N/A   Clear
4:51 AM 41.0 °F - 30.0 °F 65% 30.03 in 10.0 mi Calm Calm - N/A   Clear
5:51 AM 41.0 °F - 28.9 °F 62% 30.05 in 10.0 mi Calm Calm - N/A   Clear
6:51 AM 41.0 °F - 28.9 °F 62% 30.05 in 10.0 mi Calm Calm - N/A   Clear
7:51 AM 44.1 °F - 30.9 °F 60% 30.06 in 10.0 mi Calm Calm - N/A   Clear
8:51 AM 54.0 °F - 30.9 °F 41% 30.07 in 10.0 mi WNW 12.7 mph - N/A   Clear
10:51 AM 64.0 °F - 33.1 °F 31% 30.07 in 10.0 mi NNW 19.6 mph 24.2 mph N/A   Clear
11:51 AM 66.9 °F - 30.9 °F 26% 30.07 in 10.0 mi NW 24.2 mph 31.1 mph N/A   Clear
12:51 PM 68.0 °F - 28.9 °F 23% 30.07 in 10.0 mi NNW 21.9 mph 29.9 mph N/A   Clear
1:51 PM 68.0 °F - 28.9 °F 23% 30.09 in 10.0 mi NNW 19.6 mph 28.8 mph N/A   Clear
2:51 PM 69.1 °F - 28.9 °F 22% 30.08 in 10.0 mi NNW 15.0 mph 24.2 mph N/A   Clear
4:51 PM 68.0 °F - 28.9 °F 23% 30.09 in 10.0 mi NW 13.8 mph - N/A   Clear
5:51 PM 66.0 °F - 30.0 °F 26% 30.11 in 10.0 mi NNW 21.9 mph - N/A   Clear
6:51 PM 63.0 °F - 28.9 °F 28% 30.13 in 10.0 mi North 8.1 mph - N/A   Clear
7:51 PM 55.9 °F - 28.9 °F 36% 30.15 in 10.0 mi Calm Calm - N/A   Clear
8:51 PM 51.1 °F - 28.0 °F 41% 30.14 in 10.0 mi Calm Calm - N/A   Clear
9:51 PM 48.9 °F - 28.9 °F 46% 30.15 in 10.0 mi South 3.5 mph - N/A   Clear
10:51 PM 42.1 °F - 26.1 °F 53% 30.17 in 10.0 mi Calm Calm - N/A   Clear
11:51 PM 42.1 °F - 26.1 °F 53% 30.18 in 10.0 mi Calm Calm - N/A   Clear